Location: Ferchesar
(52.6477°N, 12.4298°E)
Time: 13:59:26
(UTC+02:00)

Transit 4A - Pass Details

Date: 04 March 2021
Orbit: 869 x 975 km, 66.8° (Epoch: 16 April)

Event Time Altitude Azimuth Distance (km) Brightness Sun altitude
Rises 14:09:17 0° 286° (WNW) 3,646 11.2 26.9°
Reaches altitude 10° 14:12:29 10° 301° (WNW) 2,685 10.4 26.6°
Maximum altitude 14:17:18 22° 351° (N) 1,913 9.3 26.2°
Drops below altitude 10° 14:22:02 10° 42° (NE) 2,631 9.8 25.9°
Sets 14:25:08 0° 57° (ENE) 3,554 10.4 25.6°
